Вернуться в каталог

COSMOS 1830

АктивенВоенныеPO
NORAD 17585·PAYLOAD·🇷🇺 Russia

Запущен Mar 13, 1987 с Plesetsk Cosmodrome

Loading…

Ближайшие Пролёты (ближайшие 24 часа)

TLE

СвежийSource: Space-Track

Эпоха: Sep 14, 2026, 15:17 UTC

1 17585U 87026D   26257.63741117  .00000044  00000-0  18521-3 0  9999
2 17585  82.5637 148.6994 0005950  33.7704 338.7731 12.63621527821944

Отслеживайте COSMOS 1830 в реальном времени с AllMySat

Download on the App Store